Terminal Aerodrome Forecast
Issued by NWS

Home | Current Version | Previous Version | Text Only | Print | Product List | Glossary On
Versions: 1 2 3 4 5 6 7 8 9 10 11 12 13 14 15 16 17 18 19 20 21 22 23 24 25 26 27 28
000
FTUS45 KLKN 041120
TAFELY
TAF
KELY 041120Z 0412/0512 16006KT P6SM SCT120
     FM041800 19011G21KT P6SM FEW120 SCT150
     FM050500 19011KT P6SM SCT090 BKN150=

USA.gov is the U.S. government's official web portal to all federal, state and local government web resources and services.